Regional Weather Roundup
Issued by NWS Memphis, TN

Home | Current Version | Previous Version | Text Only | Print | Product List | Glossary On
Versions: 1 2 3 4 5 6 7 8 9 10 11 12 13 14 15 16 17 18 19 20 21 22 23 24 25 26 27 28 29 30 31 32 33 34 35 36 37 38 39 40 41 42 43 44 45 46 47 48 49 50
000
ASUS44 KMEG 261010
RWRMEG
MEMPHIS CWA HOURLY WEATHER ROUNDUP
NATIONAL WEATHER SERVICE MEMPHIS TN
500 AM CDT SUN MAR 26 2017

...WEST TENNESSEE...

CITY           SKY/WX    TMP DP  RH WIND       PRES   REMARKS
MEMPHIS INTL   CLOUDY    60  58  92 S6        29.91S
NWS MEMPHIS      N/A     59 N/A N/A MISG        N/A
JACKSON        CLOUDY    60  57  89 S7        29.91F
SOMERVILLE     CLOUDY    59  57  94 S5        29.90F
BOLIVAR        CLOUDY    59  57  94 S3        29.92S
SAVANNAH       CLOUDY    59  57  94 S7        29.94R
DYERSBURG      CLOUDY    55  54  96 CALM      29.91S
PARIS          CLOUDY    55  55 100 S7        29.92R
HUNTINGDON     CLOUDY    59  57  94 S6        29.91S


...EASTERN ARKANSAS...

CITY           SKY/WX    TMP DP  RH WIND       PRES   REMARKS
JONESBORO      CLOUDY    53  51  93 CALM      29.91R
WEST MEMPHIS   PTCLDY    53  53 100 CALM      29.91R
BATESVILLE     CLOUDY    50  46  87 CALM      29.93R
NEWPORT        CLOUDY    53  49  86 W3          N/A
WALNUT RIDGE   CLOUDY    54  46  76 CALM      29.92R
BLYTHEVILLE    CLOUDY    54  53  97 W3        29.91R
SEARCY         CLEAR     46  46 100 CALM      29.94R
STUTTGART      CLEAR     52  41  66 CALM      29.94S
PINE BLUFF     CLEAR     50  48  93 SE3       29.93S
MONTICELLO     CLEAR     50  48  93 CALM      29.93S


...NORTH MISSISSIPPI...

CITY           SKY/WX    TMP DP  RH WIND       PRES   REMARKS
TUPELO         CLOUDY    59  56  89 SE10      29.95R
OXFORD         CLOUDY    57  55  94 S5        29.95R
BATESVILLE     CLOUDY    55  54  97 CALM      29.93S
TUNICA         CLOUDY    55  54  94 CALM      29.93R
CLARKSDALE     CLOUDY    57  57 100 NW5       29.92S
GREENWOOD      MOCLDY    58  58 100 S8        29.92R
COLUMBUS       CLOUDY    60  58  95 S10       29.96R
STARKVILLE     CLOUDY    59  57  94 S8        29.97R
GOLDEN TRIANGL CLOUDY   N/A N/A N/A S12       29.92S


...SOUTHEAST MISSOURI...

CITY           SKY/WX    TMP DP  RH WIND       PRES   REMARKS
KENNETT        CLOUDY    54  52  94 W3        29.90R
MALDEN         CLEAR     52  48  87 S5        29.91S
WEST PLAINS    CLOUDY    48  44  86 W7        29.90R
POPLAR BLUFF   CLOUDY    52  48  86 S5        29.89S
CAPE GIRARDEAU CLOUDY    53  50  89 SW6       29.88R


...NORTHWEST ALABAMA...

CITY           SKY/WX    TMP DP  RH WIND       PRES   REMARKS
MUSCLE SHOALS  CLOUDY    59  55  87 S8        29.98R


...MIDDLE TENNESSEE...

CITY           SKY/WX    TMP DP  RH WIND       PRES   REMARKS
NASHVILLE      CLOUDY    58  56  93 S10       29.97R
CLARKSVILLE    CLOUDY    58  53  84 S3        29.93F
COLUMBIA       CLOUDY   N/A N/A N/A S7        29.94F


...WESTERN KENTUCKY...

CITY           SKY/WX    TMP DP  RH WIND       PRES   REMARKS
PADUCAH        CLOUDY    57  53  86 S3        29.88S
FORT CAMPBELL  MOCLDY    59  55  88 S6        29.92F


...CENTRAL ARKANSAS...

CITY           SKY/WX    TMP DP  RH WIND       PRES   REMARKS
LITTLE ROCK    CLEAR     47  47 100 S3        29.94R


SKY/WX REPORTED AS FAIR MEANS FEW OR NO CLOUDS BELOW
12 THOUSAND FEET.





USA.gov is the U.S. government's official web portal to all federal, state and local government web resources and services.